Overview Statistics Trail Chart Weather Telemetry Raw packets
 

This is the latest recevied weather packets stored in our database for station/object AB4BJ-10. If no packets are shown the sender has not sent any weather packets the latest 10 day(s).

<< 1 2 3 4 >>
Time Temp. Humidity Pressure Rain* Wind** Luminosity Snow
1788626337 32.22° C 69% 1009.8 hPa 0 mm - - -
1788626038 32.22° C 68% 1009.8 hPa 0 mm - - -
1788625620 31.67° C 69% 1009.9 hPa 0 mm - - -
1788625437 31.67° C 69% 1009.9 hPa 0 mm - - -
1788625136 31.67° C 70% 1010 hPa 0 mm - - -
1788624836 31.67° C 70% 1010.2 hPa 0 mm - - -
1788624536 31.67° C 72% 1010.2 hPa 0 mm - - -
1788624237 31.67° C 73% 1010.2 hPa 0 mm - - -
1788623935 31.11° C 73% 1010.2 hPa 0 mm - - -
1788623635 31.11° C 73% 1010.3 hPa 0 mm - - -
1788623335 30.56° C 73% 1010.3 hPa 0 mm - - -
1788623035 30.56° C 73% 1010.5 hPa 0 mm - - -
1788622870 30.56° C 75% 1010.4 hPa 0 mm - - -
1788622734 30.56° C 75% 1010.4 hPa 0 mm - - -
1788622133 30° C 77% 1010.4 hPa 0 mm - - -
1788621833 30° C 76% 1010.4 hPa 0 mm - - -
1788621533 30° C 77% 1010.5 hPa 0 mm - - -
1788621233 29.44° C 77% 1010.6 hPa 0 mm - - -
1788620932 29.44° C 77% 1010.6 hPa 0 mm - - -
1788620033 28.89° C 78% 1010.8 hPa 0 mm - - -
1788619431 28.89° C 79% 1010.8 hPa 0 mm - - -
1788618230 27.78° C 84% 1011 hPa 0 mm - - -
1788617929 27.78° C 83% 1011 hPa 0 mm - - -
1788617629 27.22° C 83% 1011 hPa 0 mm - - -
1788617329 27.22° C 86% 1011 hPa 0 mm - - -

* Rain latest hour (hover to see other rain measurements)
** Current wind speed in m/s (hover to see current wind gust speed)